| time (UTC) | temp F | wind direction | speed MPH | gust MPH | rain 1hr in | rain 24hr in | rain mn in | humidity % | barometer mb |
| 20260831183001 | 69 | 217 | 0.0 | 0.0 | 0.00 | 0.00 | 0.00 | 26 | 1010.1 |
| 20260831181558 | 68 | 217 | 0.0 | 0.0 | 0.00 | 0.00 | 0.00 | 28 | 1010.2 |
| 20260831180053 | 65 | 238 | 0.0 | 0.0 | 0.00 | 0.00 | 0.00 | 30 | 1010.6 |
| 20260831174557 | 63 | 269 | 0.0 | 0.0 | 0.00 | 0.00 | 0.00 | 31 | 1010.8 |
| 20260831173046 | 61 | 9 | 0.0 | 0.0 | 0.00 | 0.00 | 0.00 | 34 | 1010.9 |
| 20260831171544 | 59 | 9 | 0.0 | 0.0 | 0.00 | 0.00 | 0.00 | 38 | 1011.1 |
| 20260831170106 | 56 | 9 | 0.0 | 0.0 | 0.00 | 0.00 | 0.00 | 45 | 1011.4 |
| 20260831164534 | 53 | 5 | 0.0 | 0.0 | 0.00 | 0.00 | 0.00 | 50 | 1011.6 |
| 20260831163030 | 50 | 5 | 0.0 | 0.0 | 0.00 | 0.00 | 0.00 | 54 | 1011.8 |
| 20260831161524 | 47 | 5 | 0.0 | 0.0 | 0.00 | 0.00 | 0.00 | 59 | 1012.1 |
| 20260831160030 | 44 | 5 | 0.0 | 0.0 | 0.00 | 0.00 | 0.00 | 62 | 1012.4 |
| 20260831154521 | 41 | 5 | 0.0 | 0.0 | 0.00 | 0.00 | 0.00 | 67 | 1012.4 |
| 20260831153019 | 38 | 5 | 0.0 | 0.0 | 0.00 | 0.00 | 0.00 | 70 | 1012.6 |
| 20260831151525 | 35 | 5 | 0.0 | 0.0 | 0.00 | 0.00 | 0.00 | 73 | 1012.6 |
| 20260831150020 | 32 | 5 | 0.0 | 0.0 | 0.00 | 0.00 | 0.00 | 72 | 1012.6 |
| 20260831144525 | 31 | 5 | 0.0 | 0.0 | 0.00 | 0.00 | 0.00 | 70 | 1012.6 |
| 20260831143016 | 29 | 5 | 0.0 | 0.0 | 0.00 | 0.00 | 0.00 | 69 | 1012.7 |
| 20260831141515 | 29 | 5 | 0.0 | 0.0 | 0.00 | 0.00 | 0.00 | 69 | 1012.6 |
| 20260831140020 | 29 | 5 | 0.0 | 0.0 | 0.00 | 0.00 | 0.00 | 68 | 1012.4 |
| 20260831134512 | 29 | 5 | 0.0 | 0.0 | 0.00 | 0.00 | 0.00 | 68 | 1012.6 |
| 20260831133009 | 29 | 5 | 0.0 | 0.0 | 0.00 | 0.00 | 0.00 | 67 | 1012.5 |
| 20260831131508 | 30 | 5 | 0.0 | 0.0 | 0.00 | 0.00 | 0.00 | 66 | 1012.6 |
| 20260831130006 | 30 | 5 | 0.0 | 0.0 | 0.00 | 0.00 | 0.00 | 66 | 1012.6 |
| 20260831124503 | 30 | 5 | 0.0 | 0.0 | 0.00 | 0.00 | 0.00 | 65 | 1012.5 |
| 20260831123001 | 31 | 5 | 0.0 | 0.0 | 0.00 | 0.00 | 0.00 | 65 | 1012.6 |
| 20260831121600 | 31 | 5 | 0.0 | 0.0 | 0.00 | 0.00 | 0.00 | 64 | 1012.7 |
| 20260831120058 | 32 | 5 | 0.0 | 0.0 | 0.00 | 0.00 | 0.00 | 64 | 1012.8 |
| 20260831114556 | 32 | 5 | 0.0 | 0.0 | 0.00 | 0.00 | 0.00 | 62 | 1012.9 |
| 20260831113059 | 33 | 5 | 0.0 | 0.0 | 0.00 | 0.00 | 0.00 | 62 | 1013.1 |
| 20260831111555 | 33 | 5 | 0.0 | 0.0 | 0.00 | 0.00 | 0.00 | 61 | 1013.0 |
| 20260831110049 | 34 | 5 | 0.0 | 0.0 | 0.00 | 0.00 | 0.00 | 60 | 1013.0 |
| 20260831104547 | 34 | 5 | 0.0 | 0.0 | 0.00 | 0.00 | 0.00 | 60 | 1012.9 |
| 20260831103056 | 35 | 5 | 0.0 | 0.0 | 0.00 | 0.00 | 0.00 | 58 | 1013.0 |
| 20260831101541 | 36 | 5 | 0.0 | 0.0 | 0.00 | 0.00 | 0.00 | 59 | 1013.1 |
| 20260831100039 | 36 | 5 | 0.0 | 0.0 | 0.00 | 0.00 | 0.00 | 58 | 1013.2 |
| 20260831094534 | 37 | 5 | 0.0 | 0.0 | 0.00 | 0.00 | 0.00 | 57 | 1013.3 |
| 20260831093033 | 38 | 5 | 0.0 | 0.0 | 0.00 | 0.00 | 0.00 | 56 | 1013.4 |
| 20260831091527 | 39 | 5 | 0.0 | 0.0 | 0.00 | 0.00 | 0.00 | 55 | 1013.4 |
| 20260831090025 | 40 | 5 | 0.0 | 0.0 | 0.00 | 0.00 | 0.00 | 53 | 1013.4 |
| 20260831084521 | 42 | 5 | 0.0 | 0.0 | 0.00 | 0.00 | 0.00 | 52 | 1013.6 |
| 20260831083023 | 43 | 5 | 0.0 | 0.0 | 0.00 | 0.00 | 0.00 | 50 | 1013.7 |
| 20260831081512 | 44 | 5 | 0.0 | 0.0 | 0.00 | 0.00 | 0.00 | 49 | 1013.6 |
| 20260831080025 | 45 | 5 | 0.0 | 0.0 | 0.00 | 0.00 | 0.00 | 48 | 1013.7 |
| 20260831074505 | 46 | 5 | 0.0 | 0.0 | 0.00 | 0.00 | 0.00 | 46 | 1013.8 |
| 20260831073011 | 47 | 5 | 0.0 | 0.0 | 0.00 | 0.00 | 0.00 | 45 | 1013.9 |
| 20260831071603 | 47 | 5 | 0.0 | 0.0 | 0.00 | 0.00 | 0.00 | 44 | 1013.7 |
| 20260831070058 | 48 | 5 | 0.0 | 0.0 | 0.00 | 0.00 | 0.00 | 42 | 1013.7 |
| 20260831064558 | 48 | 5 | 0.0 | 0.0 | 0.00 | 0.00 | 0.00 | 42 | 1013.8 |
| 20260831063057 | 50 | 5 | 0.0 | 0.0 | 0.00 | 0.00 | 0.00 | 40 | 1014.0 |
| 20260831061556 | 51 | 5 | 0.0 | 0.0 | 0.00 | 0.00 | 0.00 | 39 | 1014.0 |
| 20260831060056 | 52 | 5 | 0.0 | 0.0 | 0.00 | 0.00 | 0.00 | 37 | 1014.1 |
| 20260831054559 | 54 | 5 | 0.0 | 0.0 | 0.00 | 0.00 | 0.00 | 36 | 1014.1 |
| 20260831053055 | 55 | 5 | 0.0 | 0.0 | 0.00 | 0.00 | 0.00 | 35 | 1014.1 |
| 20260831051554 | 55 | 5 | 0.0 | 0.0 | 0.00 | 0.00 | 0.00 | 37 | 1014.3 |
| 20260831050054 | 54 | 5 | 0.0 | 0.0 | 0.00 | 0.00 | 0.00 | 37 | 1014.3 |
| 20260831044556 | 54 | 5 | 0.0 | 0.0 | 0.00 | 0.00 | 0.00 | 35 | 1014.3 |
| 20260831043058 | 55 | 5 | 0.0 | 0.0 | 0.00 | 0.00 | 0.00 | 33 | 1014.4 |
| 20260831041615 | 57 | 5 | 0.0 | 0.0 | 0.00 | 0.00 | 0.00 | 31 | 1014.2 |
| 20260831040053 | 60 | 5 | 0.0 | 0.0 | 0.00 | 0.00 | 0.00 | 29 | 1014.1 |
| 20260831034552 | 63 | 5 | 0.0 | 0.0 | 0.00 | 0.00 | 0.00 | 27 | 1013.8 |
| 20260831033054 | 65 | 5 | 0.0 | 0.0 | 0.00 | 0.00 | 0.00 | 26 | 1013.6 |
| 20260831031600 | 66 | 5 | 0.0 | 0.0 | 0.00 | 0.00 | 0.00 | 25 | 1013.4 |
| 20260831030059 | 66 | 5 | 0.0 | 0.0 | 0.00 | 0.00 | 0.00 | 25 | 1013.4 |
| 20260831024554 | 68 | 5 | 0.0 | 0.0 | 0.00 | 0.00 | 0.00 | 24 | 1013.3 |
| 20260831023050 | 70 | 5 | 0.0 | 0.0 | 0.00 | 0.00 | 0.00 | 22 | 1013.1 |
| 20260831021553 | 71 | 5 | 0.0 | 0.0 | 0.00 | 0.00 | 0.00 | 21 | 1013.1 |
| 20260831020049 | 72 | 355 | 0.0 | 0.0 | 0.00 | 0.00 | 0.00 | 20 | 1013.1 |
| 20260831014548 | 73 | 17 | 0.0 | 0.0 | 0.00 | 0.00 | 0.00 | 19 | 1013.1 |
| 20260831013047 | 74 | 346 | 0.0 | 0.0 | 0.00 | 0.00 | 0.00 | 12 | 1013.3 |
| 20260831011553 | 75 | 346 | 0.0 | 0.0 | 0.00 | 0.00 | 0.00 | 12 | 1013.3 |
| 20260831010044 | 75 | 351 | 0.0 | 0.0 | 0.00 | 0.00 | 0.00 | 11 | 1013.5 |
| 20260831004545 | 75 | 351 | 0.0 | 0.0 | 0.00 | 0.00 | 0.00 | 11 | 1013.7 |
| 20260831003047 | 76 | 339 | 0.0 | 0.0 | 0.00 | 0.00 | 0.00 | 11 | 1013.8 |
| 20260831001541 | 76 | 298 | 0.0 | 0.0 | 0.00 | 0.00 | 0.00 | 11 | 1013.8 |
| 20260831000055 | 76 | 250 | 0.0 | 0.0 | 0.00 | 0.00 | 0.00 | 11 | 1013.9 |
| 20260830234545 | 76 | 9 | 0.0 | 0.0 | 0.00 | 0.00 | 0.00 | 10 | 1014.0 |
| 20260830233037 | 76 | 60 | 0.0 | 0.0 | 0.00 | 0.00 | 0.00 | 12 | 1014.2 |
| 20260830231534 | 77 | 343 | 0.0 | 0.0 | 0.00 | 0.00 | 0.00 | 11 | 1014.5 |
| 20260830230034 | 77 | 121 | 0.0 | 0.0 | 0.00 | 0.00 | 0.00 | 11 | 1014.7 |
| 20260830224530 | 77 | 273 | 0.0 | 0.0 | 0.00 | 0.00 | 0.00 | 13 | 1014.8 |
| 20260830223029 | 78 | 245 | 1.0 | 0.0 | 0.00 | 0.00 | 0.00 | 12 | 1015.0 |
| 20260830221531 | 78 | 295 | 0.0 | 0.0 | 0.00 | 0.00 | 0.00 | 12 | 1015.2 |
| 20260830220027 | 78 | 271 | 0.0 | 0.0 | 0.00 | 0.00 | 0.00 | 13 | 1015.4 |
| 20260830214525 | 78 | 192 | 0.0 | 0.0 | 0.00 | 0.00 | 0.00 | 12 | 1015.6 |
| 20260830213024 | 77 | 148 | 0.0 | 0.0 | 0.00 | 0.00 | 0.00 | 14 | 1015.8 |
| 20260830211517 | 75 | 119 | 0.0 | 0.0 | 0.00 | 0.00 | 0.00 | 15 | 1015.9 |
| 20260830210014 | 74 | 229 | 0.0 | 0.0 | 0.00 | 0.00 | 0.00 | 16 | 1016.3 |
| 20260830204519 | 73 | 337 | 0.0 | 0.0 | 0.00 | 0.00 | 0.00 | 15 | 1016.3 |
| 20260830203010 | 72 | 41 | 0.0 | 0.0 | 0.00 | 0.00 | 0.00 | 16 | 1016.6 |
| 20260830201507 | 72 | 267 | 0.0 | 0.0 | 0.00 | 0.00 | 0.00 | 17 | 1016.8 |
| 20260830200003 | 70 | 137 | 0.0 | 0.0 | 0.00 | 0.00 | 0.00 | 21 | 1016.8 |
| 20260830194611 | 69 | 304 | 0.0 | 0.0 | 0.00 | 0.00 | 0.00 | 23 | 1016.9 |
| 20260830193108 | 67 | 190 | 0.0 | 0.0 | 0.00 | 0.00 | 0.00 | 27 | 1017.0 |
| 20260830191559 | 66 | 209 | 0.0 | 0.0 | 0.00 | 0.00 | 0.00 | 30 | 1017.2 |
| 20260830190050 | 63 | 195 | 0.0 | 0.0 | 0.00 | 0.00 | 0.00 | 33 | 1017.4 |
| 20260830184546 | 61 | 215 | 0.0 | 0.0 | 0.00 | 0.00 | 0.00 | 38 | 1017.5 |